,,,PA_Meas_PMT16A,,PR_Meas_QMR101_102,,RH_Meas_QMH101,,SR_Meas_QMS101,,TA_Meas_QMH101,,GenWind,,GenWind,
date,time,status,PA,status,PR,status,RH,status,SR,status,TA,status,DirAvg,status,SpdAvg,
2011-05-05, 00:00:04,VALID,999.988,VALID,0,VALID,92.4634,VALID,0,VALID,24.5775,VALID,195,VALID,1.27539,
2011-05-05, 00:01:04,VALID,1000.02,VALID,0,VALID,92.471,VALID,0,VALID,24.5775,VALID,194,VALID,0.725,
2011-05-05, 00:02:04,VALID,1000.02,VALID,0,VALID,92.4786,VALID,0,VALID,24.5775,VALID,207,VALID,0.420703,
2011-05-05, 00:03:04,VALID,1000.06,VALID,0,VALID,92.4405,VALID,0,VALID,24.5775,VALID,187,VALID,0.0289063,
2011-05-05, 00:04:04,VALID,1000.05,VALID,0,VALID,92.4176,VALID,0,VALID,24.558,VALID,182,VALID,0,
2011-05-05, 00:05:04,VALID,1000.06,VALID,0,VALID,92.3642,VALID,0,VALID,24.5385,VALID,202,VALID,0,
2011-05-05, 00:06:04,VALID,1000.06,VALID,0,VALID,92.3337,VALID,0,VALID,24.5385,VALID,235,VALID,0,
2011-05-05, 00:07:04,VALID,1000.09,VALID,0,VALID,92.326,VALID,0,VALID,24.5385,VALID,239,VALID,0,
2011-05-05, 00:08:04,VALID,1000.11,VALID,0,VALID,92.2803,VALID,0,VALID,24.519,VALID,236,VALID,0,
2011-05-05, 00:09:04,VALID,1000.13,VALID,0,VALID,92.2497,VALID,0,VALID,24.519,VALID,236,VALID,0,
2011-05-05, 00:10:04,VALID,1000.16,VALID,0,VALID,92.2192,VALID,0,VALID,24.4995,VALID,281,VALID,0,
2011-05-05, 00:11:04,VALID,1000.16,VALID,0,VALID,92.1887,VALID,0,VALID,24.48,VALID,281,VALID,0,
2011-05-05, 00:12:04,VALID,1000.15,VALID,0,VALID,92.1582,VALID,0,VALID,24.4781,VALID,281,VALID,0,
2011-05-05, 00:13:04,VALID,1000.17,VALID,0,VALID,92.1353,VALID,0,VALID,24.4604,VALID,281,VALID,0,
2011-05-05, 00:14:04,VALID,1000.18,VALID,0,VALID,92.1429,VALID,0,VALID,24.4604,VALID,281,VALID,0,
2011-05-05, 00:15:04,VALID,1000.19,VALID,0,VALID,92.1277,VALID,0,VALID,24.4409,VALID,281,VALID,0,
2011-05-05, 00:16:04,VALID,1000.21,VALID,0,VALID,92.1506,VALID,0,VALID,24.4409,VALID,281,VALID,0,
2011-05-05, 00:17:04,VALID,1000.21,VALID,0,VALID,92.1658,VALID,0,VALID,24.4214,VALID,281,VALID,0,
2011-05-05, 00:18:04,VALID,1000.23,VALID,0,VALID,92.1887,VALID,0,VALID,24.4214,VALID,281,VALID,0,
2011-05-05, 00:19:04,VALID,1000.25,VALID,0,VALID,92.204,VALID,0.112286,VALID,24.4214,VALID,281,VALID,0,
2011-05-05, 00:20:04,VALID,1000.23,VALID,0,VALID,92.2497,VALID,0,VALID,24.4019,VALID,281,VALID,0,
2011-05-05, 00:21:04,VALID,1000.22,VALID,0,VALID,92.265,VALID,0,VALID,24.4019,VALID,289,VALID,0,
2011-05-05, 00:22:04,VALID,1000.23,VALID,0,VALID,92.2726,VALID,0,VALID,24.3824,VALID,289,VALID,0,
2011-05-05, 00:23:04,VALID,1000.2,VALID,0,VALID,92.3031,VALID,0,VALID,24.3824,VALID,289,VALID,0,
2011-05-05, 00:24:04,VALID,1000.22,VALID,0,VALID,92.3413,VALID,0,VALID,24.3629,VALID,289,VALID,0,
2011-05-05, 00:25:04,VALID,1000.21,VALID,0,VALID,92.3947,VALID,0.112286,VALID,24.3629,VALID,289,VALID,0,
2011-05-05, 00:26:04,VALID,1000.21,VALID,0,VALID,92.4023,VALID,0,VALID,24.3629,VALID,289,VALID,0,
2011-05-05, 00:27:04,VALID,1000.22,VALID,0,VALID,92.4481,VALID,0,VALID,24.3433,VALID,315,VALID,0,
2011-05-05, 00:28:04,VALID,1000.17,VALID,0,VALID,92.471,VALID,0,VALID,24.3433,VALID,315,VALID,0,
2011-05-05, 00:29:04,VALID,1000.15,VALID,0,VALID,92.5015,VALID,0,VALID,24.3257,VALID,318,VALID,0,
2011-05-05, 00:30:04,VALID,1000.16,VALID,0,VALID,92.5244,VALID,0,VALID,24.3257,VALID,331,VALID,0,
2011-05-05, 00:31:04,VALID,1000.13,VALID,0,VALID,92.5397,VALID,0,VALID,24.3257,VALID,331,VALID,0,
2011-05-05, 00:32:04,VALID,1000.12,VALID,0,VALID,92.5778,VALID,0,VALID,24.3062,VALID,331,VALID,0,
2011-05-05, 00:33:04,VALID,1000.11,VALID,0,VALID,92.6007,VALID,0,VALID,24.3257,VALID,331,VALID,0,
2011-05-05, 00:34:04,VALID,1000.09,VALID,0,VALID,92.6312,VALID,0,VALID,24.3062,VALID,331,VALID,0,
2011-05-05, 00:35:04,VALID,1000.05,VALID,0,VALID,92.6388,VALID,0,VALID,24.2866,VALID,331,VALID,0,
2011-05-05, 00:36:04,VALID,1000.03,VALID,0,VALID,92.6694,VALID,0,VALID,24.2671,VALID,331,VALID,0,
2011-05-05, 00:37:04,VALID,1000.04,VALID,0,VALID,92.6999,VALID,0,VALID,24.2476,VALID,331,VALID,0,
2011-05-05, 00:38:04,VALID,999.975,VALID,0,VALID,92.7075,VALID,0,VALID,24.2476,VALID,331,VALID,0,
2011-05-05, 00:39:04,VALID,999.938,VALID,0,VALID,92.7075,VALID,0,VALID,24.2086,VALID,331,VALID,0,
2011-05-05, 00:40:04,VALID,999.904,VALID,0,VALID,92.738,VALID,0,VALID,24.2086,VALID,331,VALID,0,
2011-05-05, 00:41:04,VALID,999.894,VALID,0,VALID,92.738,VALID,0,VALID,24.2104,VALID,331,VALID,0,
2011-05-05, 00:42:04,VALID,999.901,VALID,0,VALID,92.7838,VALID,0,VALID,24.1891,VALID,331,VALID,0,
2011-05-05, 00:43:04,VALID,999.871,VALID,0,VALID,92.7838,VALID,0,VALID,24.1891,VALID,331,VALID,0,
2011-05-05, 00:44:04,VALID,999.854,VALID,0,VALID,92.8143,VALID,0,VALID,24.1696,VALID,331,VALID,0,
2011-05-05, 00:45:04,VALID,999.894,VALID,0,VALID,92.8296,VALID,0,VALID,24.15,VALID,331,VALID,0,
2011-05-05, 00:46:04,VALID,999.834,VALID,0,VALID,92.8448,VALID,0,VALID,24.1714,VALID,331,VALID,0,
2011-05-05, 00:47:04,VALID,999.822,VALID,0,VALID,92.8677,VALID,0,VALID,24.111,VALID,331,VALID,0,
2011-05-05, 00:48:04,VALID,999.847,VALID,0,VALID,92.8677,VALID,0,VALID,24.111,VALID,331,VALID,0,
2011-05-05, 00:49:04,VALID,999.841,VALID,0,VALID,92.9135,VALID,0,VALID,24.0915,VALID,331,VALID,0,
2011-05-05, 00:50:05,VALID,999.845,VALID,0,VALID,92.9211,VALID,0,VALID,24.0915,VALID,331,VALID,0,
2011-05-05, 00:51:05,VALID,999.804,VALID,0,VALID,92.9288,VALID,0,VALID,24.0915,VALID,331,VALID,0,
2011-05-05, 00:52:05,VALID,999.775,VALID,0,VALID,92.944,VALID,0,VALID,24.0915,VALID,331,VALID,0,
2011-05-05, 00:53:05,VALID,999.797,VALID,0,VALID,92.9745,VALID,0,VALID,24.111,VALID,331,VALID,0,
2011-05-05, 00:54:05,VALID,999.795,VALID,0,VALID,92.9822,VALID,0,VALID,24.111,VALID,331,VALID,0,
2011-05-05, 00:55:05,VALID,999.773,VALID,0,VALID,93.0127,VALID,0,VALID,24.0915,VALID,331,VALID,0,
2011-05-05, 00:56:05,VALID,999.751,VALID,0,VALID,93.0051,VALID,0,VALID,24.0933,VALID,331,VALID,0,
2011-05-05, 00:57:05,VALID,999.743,VALID,0,VALID,93.0432,VALID,0,VALID,24.0525,VALID,331,VALID,0,
2011-05-05, 00:58:05,VALID,999.76,VALID,0,VALID,93.0356,VALID,0,VALID,24.072,VALID,331,VALID,0,
2011-05-05, 00:59:05,VALID,999.74,VALID,0,VALID,93.0585,VALID,0,VALID,24.072,VALID,331,VALID,0,
2011-05-05, 01:00:05,VALID,999.732,VALID,0,VALID,93.0585,VALID,0,VALID,24.111,VALID,331,VALID,0,
2011-05-05, 01:01:05,VALID,999.74,VALID,0,VALID,93.0737,VALID,0,VALID,24.111,VALID,331,VALID,0,
2011-05-05, 01:02:05,VALID,999.708,VALID,0,VALID,93.1043,VALID,0,VALID,24.1305,VALID,331,VALID,0,
2011-05-05, 01:03:05,VALID,999.709,VALID,0,VALID,93.1119,VALID,0,VALID,24.15,VALID,331,VALID,0,
2011-05-05, 01:04:05,VALID,999.683,VALID,0,VALID,93.1424,VALID,0,VALID,24.15,VALID,331,VALID,0,
2011-05-05, 01:05:05,VALID,999.68,VALID,0,VALID,93.1424,VALID,0,VALID,24.1519,VALID,331,VALID,0,
2011-05-05, 01:06:05,VALID,999.651,VALID,0,VALID,93.1577,VALID,0,VALID,24.1519,VALID,331,VALID,0,
2011-05-05, 01:07:05,VALID,999.619,VALID,0,VALID,93.1653,VALID,0,VALID,24.1714,VALID,331,VALID,0,
2011-05-05, 01:08:05,VALID,999.623,VALID,0,VALID,93.1729,VALID,0,VALID,24.15,VALID,331,VALID,0,
2011-05-05, 01:09:05,VALID,999.59,VALID,0,VALID,93.2034,VALID,0,VALID,24.1305,VALID,331,VALID,0,
2011-05-05, 01:10:05,VALID,999.603,VALID,0,VALID,93.2034,VALID,0,VALID,24.111,VALID,331,VALID,0,
2011-05-05, 01:11:05,VALID,999.564,VALID,0,VALID,93.1958,VALID,0,VALID,24.111,VALID,331,VALID,0,
2011-05-05, 01:12:05,VALID,999.534,VALID,0,VALID,93.2111,VALID,0,VALID,24.0915,VALID,331,VALID,0,
2011-05-05, 01:13:05,VALID,999.52,VALID,0,VALID,93.2187,VALID,0,VALID,24.0915,VALID,331,VALID,0,
2011-05-05, 01:14:05,VALID,999.473,VALID,0,VALID,93.2492,VALID,0,VALID,24.1092,VALID,331,VALID,0,
2011-05-05, 01:15:05,VALID,999.434,VALID,0,VALID,93.234,VALID,0,VALID,24.1482,VALID,125,VALID,0,
2011-05-05, 01:16:05,VALID,999.41,VALID,0,VALID,93.2568,VALID,0,VALID,24.1287,VALID,147,VALID,0,
2011-05-05, 01:17:05,VALID,999.411,VALID,0,VALID,93.2721,VALID,0,VALID,24.1696,VALID,147,VALID,0,
2011-05-05, 01:18:05,VALID,999.42,VALID,0,VALID,93.2721,VALID,0,VALID,24.1891,VALID,147,VALID,0,
2011-05-05, 01:19:05,VALID,999.407,VALID,0,VALID,93.295,VALID,0,VALID,24.2086,VALID,147,VALID,0,
2011-05-05, 01:20:05,VALID,999.389,VALID,0,VALID,93.3026,VALID,0,VALID,24.2067,VALID,147,VALID,0,
2011-05-05, 01:21:05,VALID,999.408,VALID,0,VALID,93.3026,VALID,0,VALID,24.2067,VALID,147,VALID,0,
2011-05-05, 01:22:05,VALID,999.414,VALID,0,VALID,93.3255,VALID,0,VALID,24.2067,VALID,147,VALID,0,
2011-05-05, 01:23:05,VALID,999.398,VALID,0,VALID,93.3255,VALID,0,VALID,24.2067,VALID,147,VALID,0,
2011-05-05, 01:24:05,VALID,999.367,VALID,0,VALID,93.3179,VALID,0,VALID,24.1872,VALID,147,VALID,0,
2011-05-05, 01:25:05,VALID,999.323,VALID,0,VALID,93.3331,VALID,0,VALID,24.1872,VALID,145,VALID,0,
2011-05-05, 01:26:05,VALID,999.301,VALID,0,VALID,93.3255,VALID,0,VALID,24.2086,VALID,136,VALID,0,
2011-05-05, 01:27:05,VALID,999.297,VALID,0,VALID,93.3484,VALID,0.112286,VALID,24.1677,VALID,132,VALID,0,
2011-05-05, 01:28:05,VALID,999.247,VALID,0,VALID,93.3408,VALID,0.112286,VALID,24.1872,VALID,123,VALID,0,
2011-05-05, 01:29:05,VALID,999.254,VALID,0,VALID,93.3408,VALID,0,VALID,24.1909,VALID,121,VALID,0,
2011-05-05, 01:30:05,VALID,999.199,VALID,0,VALID,93.3331,VALID,0,VALID,24.1696,VALID,121,VALID,0,
2011-05-05, 01:31:05,VALID,999.183,VALID,0,VALID,93.3713,VALID,0,VALID,24.2104,VALID,120,VALID,0,
2011-05-05, 01:32:05,VALID,999.184,VALID,0,VALID,93.3713,VALID,0,VALID,24.1696,VALID,101,VALID,0,
2011-05-05, 01:33:05,VALID,999.126,VALID,0,VALID,93.3789,VALID,0,VALID,24.15,VALID,101,VALID,0,
2011-05-05, 01:34:05,VALID,999.084,VALID,0,VALID,93.3637,VALID,0,VALID,24.15,VALID,90,VALID,0,
2011-05-05, 01:35:05,VALID,999.051,VALID,0,VALID,93.3713,VALID,0,VALID,24.15,VALID,90,VALID,0,
2011-05-05, 01:36:05,VALID,999.048,VALID,0,VALID,93.3789,VALID,0,VALID,24.15,VALID,90,VALID,0,
2011-05-05, 01:37:05,VALID,999,VALID,0,VALID,93.3866,VALID,0,VALID,24.1519,VALID,90,VALID,0,
2011-05-05, 01:38:05,VALID,998.957,VALID,0,VALID,93.3789,VALID,0,VALID,24.1324,VALID,88,VALID,0,
2011-05-05, 01:39:05,VALID,998.935,VALID,0,VALID,93.3942,VALID,0,VALID,24.1128,VALID,88,VALID,0,
2011-05-05, 01:40:05,VALID,998.885,VALID,0,VALID,93.3866,VALID,0,VALID,24.0933,VALID,88,VALID,0,
2011-05-05, 01:41:05,VALID,998.897,VALID,0,VALID,93.4094,VALID,0,VALID,24.0933,VALID,88,VALID,0,
2011-05-05, 01:42:05,VALID,998.911,VALID,0,VALID,93.3942,VALID,0,VALID,24.0933,VALID,88,VALID,0,
2011-05-05, 01:43:05,VALID,998.893,VALID,0,VALID,93.3942,VALID,0,VALID,24.072,VALID,88,VALID,0,
2011-05-05, 01:44:05,VALID,998.886,VALID,0,VALID,93.4094,VALID,0,VALID,24.0701,VALID,88,VALID,0,
2011-05-05, 01:45:05,VALID,998.878,VALID,0,VALID,93.4171,VALID,0,VALID,24.0506,VALID,88,VALID,0,
2011-05-05, 01:46:05,VALID,998.842,VALID,0,VALID,93.3942,VALID,0,VALID,24.0311,VALID,88,VALID,0,
2011-05-05, 01:47:05,VALID,998.84,VALID,0,VALID,93.4018,VALID,0,VALID,24.0116,VALID,88,VALID,0,
2011-05-05, 01:48:05,VALID,998.828,VALID,0,VALID,93.3942,VALID,0,VALID,24.0329,VALID,88,VALID,0,
2011-05-05, 01:49:05,VALID,998.828,VALID,0,VALID,93.4171,VALID,0.112286,VALID,24.0116,VALID,88,VALID,0,
2011-05-05, 01:50:05,VALID,998.817,VALID,0,VALID,93.4247,VALID,0,VALID,23.9921,VALID,88,VALID,0,
2011-05-05, 01:51:05,VALID,998.819,VALID,0,VALID,93.4323,VALID,0,VALID,23.9921,VALID,88,VALID,0,
2011-05-05, 01:52:05,VALID,998.827,VALID,0,VALID,93.4247,VALID,0,VALID,23.9921,VALID,88,VALID,0,
2011-05-05, 01:53:05,VALID,998.836,VALID,0,VALID,93.4171,VALID,0.112286,VALID,23.9921,VALID,88,VALID,0,
2011-05-05, 01:54:05,VALID,998.798,VALID,0,VALID,93.4552,VALID,0,VALID,24.0311,VALID,88,VALID,0,
2011-05-05, 01:55:05,VALID,998.781,VALID,0,VALID,93.4323,VALID,0,VALID,24.0506,VALID,88,VALID,0,
2011-05-05, 01:56:05,VALID,998.791,VALID,0,VALID,93.4476,VALID,0,VALID,24.0311,VALID,88,VALID,0,
2011-05-05, 01:57:05,VALID,998.791,VALID,0,VALID,93.44,VALID,0,VALID,24.0116,VALID,88,VALID,0,
2011-05-05, 01:58:05,VALID,998.765,VALID,0,VALID,93.4476,VALID,0,VALID,24.0116,VALID,88,VALID,0,
2011-05-05, 01:59:05,VALID,998.781,VALID,0,VALID,93.44,VALID,0,VALID,24.0134,VALID,88,VALID,0,
2011-05-05, 02:00:05,VALID,998.783,VALID,0,VALID,93.4628,VALID,0,VALID,23.9744,VALID,88,VALID,0,
2011-05-05, 02:01:05,VALID,998.815,VALID,0,VALID,93.4476,VALID,0,VALID,23.9939,VALID,88,VALID,0,
2011-05-05, 02:02:05,VALID,998.814,VALID,0,VALID,93.4628,VALID,0,VALID,24.0329,VALID,88,VALID,0,
2011-05-05, 02:03:05,VALID,998.842,VALID,0,VALID,93.4552,VALID,0,VALID,24.0134,VALID,88,VALID,0,
2011-05-05, 02:04:05,VALID,998.812,VALID,0,VALID,93.4705,VALID,0,VALID,24.0348,VALID,88,VALID,0,
2011-05-05, 02:05:05,VALID,998.854,VALID,0,VALID,93.4476,VALID,0,VALID,24.0134,VALID,88,VALID,0,
2011-05-05, 02:06:05,VALID,998.885,VALID,0,VALID,93.4323,VALID,0,VALID,24.0134,VALID,88,VALID,0,
2011-05-05, 02:07:05,VALID,998.907,VALID,0,VALID,93.4476,VALID,0,VALID,24.0329,VALID,88,VALID,0,
2011-05-05, 02:08:05,VALID,998.893,VALID,0,VALID,93.4857,VALID,0,VALID,24.0329,VALID,88,VALID,0,
2011-05-05, 02:09:05,VALID,998.887,VALID,0,VALID,93.4628,VALID,0,VALID,24.0329,VALID,88,VALID,0,
2011-05-05, 02:10:05,VALID,998.902,VALID,0,VALID,93.4705,VALID,0,VALID,24.0348,VALID,88,VALID,0,
2011-05-05, 02:11:05,VALID,998.91,VALID,0,VALID,93.4857,VALID,0,VALID,24.0153,VALID,88,VALID,0,
2011-05-05, 02:12:05,VALID,998.888,VALID,0,VALID,93.4781,VALID,0,VALID,23.9939,VALID,88,VALID,0,
2011-05-05, 02:13:05,VALID,998.895,VALID,0,VALID,93.4552,VALID,0,VALID,24.0153,VALID,88,VALID,0,
2011-05-05, 02:14:05,VALID,998.877,VALID,0,VALID,93.4857,VALID,0,VALID,23.9957,VALID,88,VALID,0,
2011-05-05, 02:15:05,VALID,998.872,VALID,0,VALID,93.4857,VALID,0,VALID,23.9744,VALID,88,VALID,0,
2011-05-05, 02:16:05,VALID,998.888,VALID,0,VALID,93.4934,VALID,0,VALID,23.9549,VALID,88,VALID,0,
2011-05-05, 02:17:05,VALID,998.913,VALID,0,VALID,93.4934,VALID,0,VALID,23.9354,VALID,88,VALID,0,
2011-05-05, 02:18:05,VALID,998.914,VALID,0,VALID,93.4781,VALID,0,VALID,23.9567,VALID,88,VALID,0,
2011-05-05, 02:19:05,VALID,998.956,VALID,0,VALID,93.4857,VALID,0,VALID,23.9549,VALID,88,VALID,0,
2011-05-05, 02:20:05,VALID,998.978,VALID,0,VALID,93.4934,VALID,0,VALID,23.9549,VALID,88,VALID,0,
2011-05-05, 02:21:05,VALID,998.959,VALID,0,VALID,93.4857,VALID,0,VALID,23.9549,VALID,88,VALID,0,
2011-05-05, 02:22:05,VALID,998.982,VALID,0,VALID,93.4934,VALID,0,VALID,23.9957,VALID,88,VALID,0,
2011-05-05, 02:23:05,VALID,998.977,VALID,0,VALID,93.5163,VALID,0,VALID,23.9744,VALID,88,VALID,0,
2011-05-05, 02:24:05,VALID,998.976,VALID,0.5,VALID,93.4934,VALID,0,VALID,23.9744,VALID,88,VALID,0,
2011-05-05, 02:25:05,VALID,998.986,VALID,0,VALID,93.501,VALID,0,VALID,23.9354,VALID,88,VALID,0,
2011-05-05, 02:26:05,VALID,998.968,VALID,0,VALID,93.5086,VALID,0,VALID,23.9567,VALID,88,VALID,0,
2011-05-05, 02:27:05,VALID,998.946,VALID,0,VALID,93.501,VALID,0,VALID,23.9549,VALID,88,VALID,0,
2011-05-05, 02:28:05,VALID,998.985,VALID,0,VALID,93.5163,VALID,0,VALID,23.9567,VALID,88,VALID,0,
2011-05-05, 02:29:05,VALID,998.99,VALID,0,VALID,93.4934,VALID,0,VALID,23.8963,VALID,88,VALID,0,
2011-05-05, 02:30:05,VALID,999.011,VALID,0,VALID,93.5239,VALID,0,VALID,23.8963,VALID,88,VALID,0,
2011-05-05, 02:31:05,VALID,999.011,VALID,0,VALID,93.5239,VALID,0,VALID,23.8768,VALID,88,VALID,0,
2011-05-05, 02:32:05,VALID,999.06,VALID,0,VALID,93.5391,VALID,0,VALID,23.8963,VALID,88,VALID,0,
2011-05-05, 02:33:05,VALID,999.071,VALID,0,VALID,93.5163,VALID,0,VALID,23.8963,VALID,88,VALID,0,
2011-05-05, 02:34:05,VALID,999.067,VALID,0,VALID,93.5468,VALID,0,VALID,23.9159,VALID,88,VALID,0,
2011-05-05, 02:35:05,VALID,999.091,VALID,0,VALID,93.5239,VALID,0,VALID,23.9159,VALID,88,VALID,0,
2011-05-05, 02:36:05,VALID,999.085,VALID,0,VALID,93.5239,VALID,0,VALID,23.8963,VALID,88,VALID,0,
2011-05-05, 02:37:05,VALID,999.115,VALID,0,VALID,93.5391,VALID,0,VALID,23.8963,VALID,88,VALID,0,
2011-05-05, 02:38:05,VALID,999.09,VALID,0,VALID,93.5468,VALID,0,VALID,23.8963,VALID,88,VALID,0,
2011-05-05, 02:39:05,VALID,999.078,VALID,0,VALID,93.562,VALID,0,VALID,23.8573,VALID,88,VALID,0,
2011-05-05, 02:40:05,VALID,999.064,VALID,0,VALID,93.5391,VALID,0,VALID,23.8768,VALID,88,VALID,0,
2011-05-05, 02:41:05,VALID,999.057,VALID,0,VALID,93.5544,VALID,0,VALID,23.8768,VALID,88,VALID,0,
2011-05-05, 02:42:05,VALID,999.032,VALID,0,VALID,93.5468,VALID,0,VALID,23.8963,VALID,88,VALID,0,
2011-05-05, 02:43:05,VALID,998.99,VALID,0,VALID,93.5697,VALID,0,VALID,23.9159,VALID,88,VALID,0,
2011-05-05, 02:44:05,VALID,999.024,VALID,0,VALID,93.5468,VALID,0,VALID,23.8963,VALID,134,VALID,0,
2011-05-05, 02:45:05,VALID,998.998,VALID,0,VALID,93.562,VALID,0,VALID,23.9159,VALID,134,VALID,0,
2011-05-05, 02:46:05,VALID,998.971,VALID,0,VALID,93.5391,VALID,0,VALID,23.8963,VALID,134,VALID,0,
2011-05-05, 02:47:05,VALID,998.999,VALID,0,VALID,93.562,VALID,0,VALID,23.9159,VALID,137,VALID,0,
2011-05-05, 02:48:05,VALID,998.985,VALID,0,VALID,93.5697,VALID,0,VALID,23.9159,VALID,137,VALID,0,
2011-05-05, 02:49:05,VALID,999.013,VALID,0,VALID,93.5544,VALID,0,VALID,23.9372,VALID,137,VALID,0,
2011-05-05, 02:50:05,VALID,999.022,VALID,0,VALID,93.5468,VALID,0,VALID,23.9159,VALID,137,VALID,0,
2011-05-05, 02:51:05,VALID,999.043,VALID,0,VALID,93.562,VALID,0,VALID,23.9354,VALID,137,VALID,0,
2011-05-05, 02:52:05,VALID,999.052,VALID,0,VALID,93.5697,VALID,0,VALID,23.9354,VALID,137,VALID,0,
2011-05-05, 02:53:05,VALID,999.039,VALID,0,VALID,93.5697,VALID,0,VALID,23.9549,VALID,137,VALID,0,
2011-05-05, 02:54:05,VALID,999.049,VALID,0,VALID,93.5773,VALID,0,VALID,23.9744,VALID,137,VALID,0,
2011-05-05, 02:55:05,VALID,999.07,VALID,0,VALID,93.5773,VALID,0,VALID,23.9744,VALID,137,VALID,0,
2011-05-05, 02:56:05,VALID,999,VALID,0,VALID,93.5773,VALID,0,VALID,23.9744,VALID,137,VALID,0,
2011-05-05, 02:57:05,VALID,998.999,VALID,0,VALID,93.5849,VALID,0,VALID,23.9744,VALID,137,VALID,0,
2011-05-05, 02:58:05,VALID,998.997,VALID,0,VALID,93.5773,VALID,0,VALID,23.9744,VALID,137,VALID,0,
2011-05-05, 02:59:05,VALID,999.001,VALID,0,VALID,93.562,VALID,0,VALID,23.9744,VALID,137,VALID,0,
2011-05-05, 03:00:05,VALID,998.983,VALID,0,VALID,93.5849,VALID,0,VALID,23.9744,VALID,137,VALID,0,
2011-05-05, 03:01:05,VALID,998.991,VALID,0,VALID,93.562,VALID,0,VALID,23.9957,VALID,137,VALID,0,
2011-05-05, 03:02:05,VALID,998.973,VALID,0,VALID,93.5773,VALID,0,VALID,23.9939,VALID,137,VALID,0,
2011-05-05, 03:03:05,VALID,998.942,VALID,0,VALID,93.5849,VALID,0,VALID,24.0153,VALID,137,VALID,0,
2011-05-05, 03:04:05,VALID,998.994,VALID,0,VALID,93.6002,VALID,0,VALID,23.9939,VALID,137,VALID,0,
2011-05-05, 03:05:05,VALID,998.965,VALID,0,VALID,93.6078,VALID,0,VALID,23.9939,VALID,137,VALID,0,
2011-05-05, 03:06:05,VALID,998.979,VALID,0,VALID,93.6002,VALID,0,VALID,24.0348,VALID,137,VALID,0,
2011-05-05, 03:07:05,VALID,999,VALID,0,VALID,93.5926,VALID,0,VALID,24.0153,VALID,137,VALID,0,
2011-05-05, 03:08:05,VALID,998.991,VALID,0,VALID,93.5773,VALID,0,VALID,24.0329,VALID,137,VALID,0,
2011-05-05, 03:09:05,VALID,998.995,VALID,0,VALID,93.5849,VALID,0,VALID,24.0134,VALID,137,VALID,0,
2011-05-05, 03:10:05,VALID,998.996,VALID,0,VALID,93.5926,VALID,0,VALID,24.0329,VALID,137,VALID,0,
2011-05-05, 03:11:05,VALID,998.988,VALID,0,VALID,93.5697,VALID,0,VALID,24.0134,VALID,137,VALID,0,
2011-05-05, 03:12:05,VALID,998.994,VALID,0,VALID,93.5773,VALID,0,VALID,24.0543,VALID,137,VALID,0,
2011-05-05, 03:13:05,VALID,998.98,VALID,0,VALID,93.5697,VALID,0,VALID,24.0329,VALID,137,VALID,0,
2011-05-05, 03:14:05,VALID,999.016,VALID,0,VALID,93.5697,VALID,0,VALID,24.0506,VALID,137,VALID,0,
2011-05-05, 03:15:05,VALID,999.033,VALID,0,VALID,93.5773,VALID,0,VALID,24.0701,VALID,137,VALID,0,
2011-05-05, 03:16:05,VALID,999.015,VALID,0,VALID,93.562,VALID,0,VALID,24.0701,VALID,137,VALID,0,
2011-05-05, 03:17:05,VALID,999.031,VALID,0,VALID,93.5849,VALID,0,VALID,24.0915,VALID,137,VALID,0,
2011-05-05, 03:18:05,VALID,999.033,VALID,0,VALID,93.5849,VALID,0,VALID,24.0915,VALID,137,VALID,0,
2011-05-05, 03:19:05,VALID,999.026,VALID,0,VALID,93.562,VALID,0,VALID,24.0915,VALID,137,VALID,0,
2011-05-05, 03:20:05,VALID,999.043,VALID,0,VALID,93.5849,VALID,0,VALID,24.111,VALID,137,VALID,0,
2011-05-05, 03:21:05,VALID,999.052,VALID,0,VALID,93.5773,VALID,0,VALID,24.0897,VALID,137,VALID,0,
2011-05-05, 03:22:05,VALID,999.046,VALID,0,VALID,93.562,VALID,0,VALID,24.0897,VALID,137,VALID,0,
2011-05-05, 03:23:05,VALID,999.08,VALID,0,VALID,93.5697,VALID,0,VALID,24.0897,VALID,137,VALID,0,
2011-05-05, 03:24:05,VALID,999.073,VALID,0,VALID,93.5544,VALID,0,VALID,24.0897,VALID,137,VALID,0,
2011-05-05, 03:25:05,VALID,999.096,VALID,0,VALID,93.5544,VALID,0,VALID,24.1092,VALID,137,VALID,0,
2011-05-05, 03:26:05,VALID,999.073,VALID,0,VALID,93.5773,VALID,0,VALID,24.1305,VALID,137,VALID,0,
2011-05-05, 03:27:05,VALID,999.09,VALID,0,VALID,93.5697,VALID,0,VALID,24.1287,VALID,137,VALID,0,
2011-05-05, 03:28:05,VALID,999.11,VALID,0,VALID,93.5544,VALID,0,VALID,24.1287,VALID,135,VALID,0,
2011-05-05, 03:29:05,VALID,999.105,VALID,0,VALID,93.5544,VALID,0,VALID,24.1305,VALID,123,VALID,0,
2011-05-05, 03:30:05,VALID,999.084,VALID,0,VALID,93.5544,VALID,0,VALID,24.1305,VALID,122,VALID,0,
2011-05-05, 03:31:05,VALID,999.136,VALID,0,VALID,93.5468,VALID,0,VALID,24.15,VALID,122,VALID,0,
2011-05-05, 03:32:05,VALID,999.14,VALID,0,VALID,93.5468,VALID,0,VALID,24.1696,VALID,120,VALID,0,
2011-05-05, 03:33:04,VALID,999.136,VALID,0,VALID,93.5315,VALID,0,VALID,24.1696,VALID,119,VALID,0,
2011-05-05, 03:34:04,VALID,999.132,VALID,0,VALID,93.5163,VALID,0,VALID,24.1891,VALID,119,VALID,0,
2011-05-05, 03:35:04,VALID,999.179,VALID,0,VALID,93.5086,VALID,0,VALID,24.2086,VALID,106,VALID,0,
2011-05-05, 03:36:04,VALID,999.141,VALID,0,VALID,93.5163,VALID,0,VALID,24.2086,VALID,106,VALID,0,
2011-05-05, 03:37:04,VALID,999.094,VALID,0,VALID,93.5163,VALID,0,VALID,24.1891,VALID,92,VALID,0,
2011-05-05, 03:38:04,VALID,999.088,VALID,0,VALID,93.5239,VALID,0,VALID,24.1696,VALID,92,VALID,0,
2011-05-05, 03:39:04,VALID,999.032,VALID,0,VALID,93.4857,VALID,0,VALID,24.1696,VALID,92,VALID,0,
2011-05-05, 03:40:04,VALID,998.991,VALID,0,VALID,93.501,VALID,0,VALID,24.15,VALID,92,VALID,0,
2011-05-05, 03:41:04,VALID,999.011,VALID,0,VALID,93.4857,VALID,0,VALID,24.15,VALID,92,VALID,0,
2011-05-05, 03:42:04,VALID,998.997,VALID,0,VALID,93.4934,VALID,0,VALID,24.1305,VALID,92,VALID,0,
2011-05-05, 03:43:04,VALID,999.027,VALID,0,VALID,93.4781,VALID,0,VALID,24.1305,VALID,92,VALID,0,
2011-05-05, 03:44:04,VALID,999.062,VALID,0,VALID,93.4705,VALID,0,VALID,24.1092,VALID,92,VALID,0,
2011-05-05, 03:45:04,VALID,999.06,VALID,0,VALID,93.4705,VALID,0,VALID,24.1092,VALID,92,VALID,0,
2011-05-05, 03:46:04,VALID,999.065,VALID,0,VALID,93.4628,VALID,0,VALID,24.0897,VALID,92,VALID,0,
2011-05-05, 03:47:04,VALID,999.057,VALID,0,VALID,93.4552,VALID,0,VALID,24.0701,VALID,92,VALID,0,
2011-05-05, 03:48:04,VALID,999.092,VALID,0,VALID,93.4476,VALID,0,VALID,24.0701,VALID,92,VALID,0,
2011-05-05, 03:49:04,VALID,999.089,VALID,0,VALID,93.4476,VALID,0,VALID,24.0506,VALID,92,VALID,0,
2011-05-05, 03:50:04,VALID,999.072,VALID,0,VALID,93.4323,VALID,0,VALID,24.072,VALID,92,VALID,0,
2011-05-05, 03:51:04,VALID,999.048,VALID,0,VALID,93.44,VALID,0,VALID,24.072,VALID,88,VALID,0,
2011-05-05, 03:52:04,VALID,999.082,VALID,0,VALID,93.4323,VALID,0,VALID,24.072,VALID,88,VALID,0,
2011-05-05, 03:53:04,VALID,999.109,VALID,0,VALID,93.4247,VALID,0.112286,VALID,24.0506,VALID,88,VALID,0,
2011-05-05, 03:54:04,VALID,999.092,VALID,0,VALID,93.4171,VALID,0,VALID,24.0525,VALID,88,VALID,0,
2011-05-05, 03:55:04,VALID,999.119,VALID,0,VALID,93.3942,VALID,0,VALID,24.072,VALID,88,VALID,0,
2011-05-05, 03:56:04,VALID,999.113,VALID,0,VALID,93.3866,VALID,0,VALID,24.072,VALID,88,VALID,0,
2011-05-05, 03:57:04,VALID,999.103,VALID,0,VALID,93.3713,VALID,0,VALID,24.0311,VALID,88,VALID,0,
2011-05-05, 03:58:04,VALID,999.097,VALID,0,VALID,93.3866,VALID,0,VALID,24.0311,VALID,88,VALID,0,
2011-05-05, 03:59:04,VALID,999.12,VALID,0,VALID,93.3713,VALID,0,VALID,24.0311,VALID,88,VALID,0,
2011-05-05, 04:00:04,VALID,999.12,VALID,0,VALID,93.3484,VALID,0,VALID,24.0311,VALID,88,VALID,0,